Time,TemperatureF,DewpointF,PressureIn,WindDirection,WindDirectionDegrees,WindSpeedMPH,WindSpeedGustMPH,Humidity,HourlyPrecipIn,Conditions,Clouds,dailyrainin,SoftwareType,DateUTC
2013-06-24 00:02:00,73.2,66.7,30.14,West,270,0.0,0.0,80,0.00,,,0.00,WUHU216HW,2013-06-24 04:02:00,
2013-06-24 00:08:00,73.0,66.5,30.14,West,270,0.0,0.0,80,0.00,,,0.00,WUHU216HW,2013-06-24 04:08:00,
2013-06-24 00:13:00,73.0,66.3,30.14,West,270,0.0,0.0,80,0.00,,,0.00,WUHU216HW,2013-06-24 04:13:00,
2013-06-24 00:18:00,72.6,66.2,30.14,West,270,0.0,0.0,80,0.00,,,0.00,WUHU216HW,2013-06-24 04:18:00,
2013-06-24 00:23:00,72.5,66.0,30.14,West,270,0.0,0.0,80,0.00,,,0.00,WUHU216HW,2013-06-24 04:23:00,
2013-06-24 00:28:00,72.3,65.8,30.14,West,270,0.0,0.0,80,0.00,,,0.00,WUHU216HW,2013-06-24 04:28:00,
2013-06-24 00:34:00,72.3,65.8,30.14,West,270,0.0,0.0,80,0.00,,,0.00,WUHU216HW,2013-06-24 04:34:00,
2013-06-24 00:40:00,72.1,66.0,30.14,West,270,0.0,0.0,81,0.00,,,0.00,WUHU216HW,2013-06-24 04:40:00,
2013-06-24 00:45:00,71.9,65.8,30.14,West,270,0.0,0.0,81,0.00,,,0.00,WUHU216HW,2013-06-24 04:45:00,
2013-06-24 00:51:00,71.7,65.6,30.14,West,270,0.0,0.0,81,0.00,,,0.00,WUHU216HW,2013-06-24 04:51:00,
2013-06-24 00:57:00,71.4,65.2,30.14,West,270,0.0,0.0,81,0.00,,,0.00,WUHU216HW,2013-06-24 04:57:00,
2013-06-24 01:02:00,71.4,65.2,30.14,West,270,0.0,0.0,81,0.00,,,0.00,WUHU216HW,2013-06-24 05:02:00,
2013-06-24 01:08:00,71.4,65.2,30.13,West,270,0.0,0.0,81,0.00,,,0.00,WUHU216HW,2013-06-24 05:08:00,
2013-06-24 01:14:00,71.2,65.4,30.13,West,270,0.0,0.0,82,0.00,,,0.00,WUHU216HW,2013-06-24 05:14:00,
2013-06-24 01:20:00,71.2,65.4,30.13,West,270,0.0,0.0,82,0.00,,,0.00,WUHU216HW,2013-06-24 05:20:00,
2013-06-24 01:25:00,71.2,65.4,30.13,West,270,0.0,0.0,82,0.00,,,0.00,WUHU216HW,2013-06-24 05:25:00,
2013-06-24 01:31:00,71.2,65.4,30.13,West,270,0.0,0.0,82,0.00,,,0.00,WUHU216HW,2013-06-24 05:31:00,
2013-06-24 01:36:00,71.0,65.6,30.13,West,270,0.0,0.0,83,0.00,,,0.00,WUHU216HW,2013-06-24 05:36:00,
2013-06-24 01:43:00,70.8,65.4,30.13,West,270,0.0,0.0,83,0.00,,,0.00,WUHU216HW,2013-06-24 05:43:00,
2013-06-24 01:54:00,70.7,65.2,30.13,West,270,0.0,0.0,83,0.00,,,0.00,WUHU216HW,2013-06-24 05:54:00,
2013-06-24 02:04:00,70.5,65.0,30.13,West,270,0.0,0.0,83,0.00,,,0.00,WUHU216HW,2013-06-24 06:04:00,
2013-06-24 02:09:00,70.3,64.8,30.13,West,270,0.0,0.0,83,0.00,,,0.00,WUHU216HW,2013-06-24 06:09:00,
2013-06-24 02:15:00,70.1,64.7,30.13,West,270,0.0,0.0,83,0.00,,,0.00,WUHU216HW,2013-06-24 06:15:00,
2013-06-24 02:21:00,70.1,64.7,30.13,West,270,0.0,0.0,83,0.00,,,0.00,WUHU216HW,2013-06-24 06:21:00,
2013-06-24 02:26:00,69.9,64.5,30.13,West,270,0.0,0.0,83,0.00,,,0.00,WUHU216HW,2013-06-24 06:26:00,
2013-06-24 02:31:00,69.8,64.3,30.13,West,270,0.0,0.0,83,0.00,,,0.00,WUHU216HW,2013-06-24 06:31:00,
2013-06-24 02:37:00,69.6,64.5,30.13,West,270,0.0,0.0,84,0.00,,,0.00,WUHU216HW,2013-06-24 06:37:00,
2013-06-24 02:42:00,69.6,64.5,30.13,West,270,0.0,0.0,84,0.00,,,0.00,WUHU216HW,2013-06-24 06:42:00,
2013-06-24 02:48:00,69.4,64.3,30.13,West,270,0.0,0.0,84,0.00,,,0.00,WUHU216HW,2013-06-24 06:48:00,
2013-06-24 02:53:00,69.4,64.3,30.13,West,270,0.0,0.0,84,0.00,,,0.00,WUHU216HW,2013-06-24 06:53:00,
2013-06-24 02:59:00,69.0,64.0,30.13,West,270,0.0,0.0,84,0.00,,,0.00,WUHU216HW,2013-06-24 06:59:00,
2013-06-24 03:05:00,69.0,64.0,30.13,West,270,0.0,0.0,84,0.00,,,0.00,WUHU216HW,2013-06-24 07:05:00,
2013-06-24 03:10:00,68.9,63.8,30.13,West,270,0.0,0.0,84,0.00,,,0.00,WUHU216HW,2013-06-24 07:10:00,
2013-06-24 03:15:00,68.7,63.6,30.13,West,270,0.0,0.0,84,0.00,,,0.00,WUHU216HW,2013-06-24 07:15:00,
2013-06-24 03:22:00,68.7,63.6,30.13,West,270,0.0,0.0,84,0.00,,,0.00,WUHU216HW,2013-06-24 07:22:00,
2013-06-24 03:27:00,68.7,63.6,30.13,West,270,0.0,0.0,84,0.00,,,0.00,WUHU216HW,2013-06-24 07:27:00,
2013-06-24 03:33:00,68.5,63.8,30.13,West,270,0.0,0.0,85,0.00,,,0.00,WUHU216HW,2013-06-24 07:33:00,
2013-06-24 03:38:00,68.5,63.8,30.13,West,270,0.0,0.0,85,0.00,,,0.00,WUHU216HW,2013-06-24 07:38:00,
2013-06-24 03:45:00,68.3,63.6,30.13,West,270,0.0,0.0,85,0.00,,,0.00,WUHU216HW,2013-06-24 07:45:00,
2013-06-24 03:50:00,68.3,63.6,30.13,West,270,0.0,0.0,85,0.00,,,0.00,WUHU216HW,2013-06-24 07:50:00,
2013-06-24 04:00:00,68.0,63.3,30.13,West,270,0.0,0.0,85,0.00,,,0.00,WUHU216HW,2013-06-24 08:00:00,
2013-06-24 04:05:00,67.8,63.1,30.13,West,270,0.0,0.0,85,0.00,,,0.00,WUHU216HW,2013-06-24 08:05:00,
2013-06-24 04:11:00,67.8,63.1,30.13,West,270,0.0,0.0,85,0.00,,,0.00,WUHU216HW,2013-06-24 08:11:00,
2013-06-24 04:16:00,67.8,63.1,30.13,West,270,0.0,0.0,85,0.00,,,0.00,WUHU216HW,2013-06-24 08:16:00,
2013-06-24 04:22:00,67.8,63.1,30.13,West,270,0.0,0.0,85,0.00,,,0.00,WUHU216HW,2013-06-24 08:22:00,
2013-06-24 04:27:00,67.8,63.1,30.13,West,270,0.0,0.0,85,0.00,,,0.00,WUHU216HW,2013-06-24 08:27:00,
2013-06-24 04:32:00,67.6,63.2,30.13,West,270,0.0,0.0,86,0.00,,,0.00,WUHU216HW,2013-06-24 08:32:00,
2013-06-24 04:38:00,67.6,63.2,30.13,West,270,0.0,0.0,86,0.00,,,0.00,WUHU216HW,2013-06-24 08:38:00,
2013-06-24 04:44:00,67.2,62.9,30.13,West,270,0.0,0.0,86,0.00,,,0.00,WUHU216HW,2013-06-24 08:44:00,
2013-06-24 04:50:00,67.2,62.9,30.13,West,270,0.0,0.0,86,0.00,,,0.00,WUHU216HW,2013-06-24 08:50:00,
2013-06-24 04:56:00,67.2,62.9,30.14,West,270,0.0,0.0,86,0.00,,,0.00,WUHU216HW,2013-06-24 08:56:00,
2013-06-24 05:07:00,67.1,62.7,30.13,West,270,0.0,0.0,86,0.00,,,0.00,WUHU216HW,2013-06-24 09:07:00,
2013-06-24 05:12:00,66.9,62.5,30.13,West,270,0.0,0.0,86,0.00,,,0.00,WUHU216HW,2013-06-24 09:12:00,
2013-06-24 05:19:00,66.9,62.5,30.13,West,270,0.0,0.0,86,0.00,,,0.00,WUHU216HW,2013-06-24 09:19:00,
2013-06-24 05:24:00,66.9,62.5,30.13,West,270,0.0,0.0,86,0.00,,,0.00,WUHU216HW,2013-06-24 09:24:00,
2013-06-24 05:29:00,66.7,62.7,30.13,West,270,0.0,0.0,87,0.00,,,0.00,WUHU216HW,2013-06-24 09:29:00,
2013-06-24 05:35:00,66.7,62.7,30.13,West,270,0.0,0.0,87,0.00,,,0.00,WUHU216HW,2013-06-24 09:35:00,
2013-06-24 05:45:00,66.3,62.3,30.13,West,270,0.0,0.0,87,0.00,,,0.00,WUHU216HW,2013-06-24 09:45:00,
2013-06-24 05:51:00,66.3,62.3,30.13,West,270,0.0,0.0,87,0.00,,,0.00,WUHU216HW,2013-06-24 09:51:00,
2013-06-24 05:57:00,66.3,62.3,30.13,West,270,0.0,0.0,87,0.00,,,0.00,WUHU216HW,2013-06-24 09:57:00,
2013-06-24 06:02:00,66.3,62.3,30.14,West,270,0.0,0.0,87,0.00,,,0.00,WUHU216HW,2013-06-24 10:02:00,
2013-06-24 06:13:00,66.2,62.1,30.15,West,270,0.0,0.0,87,0.00,,,0.00,WUHU216HW,2013-06-24 10:13:00,
2013-06-24 06:19:00,66.2,62.1,30.15,West,270,0.0,0.0,87,0.00,,,0.00,WUHU216HW,2013-06-24 10:19:00,
2013-06-24 06:29:00,66.3,62.6,30.15,West,270,0.0,0.0,88,0.00,,,0.00,WUHU216HW,2013-06-24 10:29:00,
2013-06-24 06:35:00,66.7,63.0,30.15,West,270,0.0,0.0,88,0.00,,,0.00,WUHU216HW,2013-06-24 10:35:00,
2013-06-24 06:41:00,66.9,63.2,30.15,West,270,0.0,0.0,88,0.00,,,0.00,WUHU216HW,2013-06-24 10:41:00,
2013-06-24 06:51:00,67.4,64.0,30.15,West,270,0.0,0.0,89,0.00,,,0.00,WUHU216HW,2013-06-24 10:51:00,
2013-06-24 06:57:00,67.8,64.4,30.16,West,270,0.0,0.0,89,0.00,,,0.00,WUHU216HW,2013-06-24 10:57:00,
2013-06-24 07:03:00,68.0,64.6,30.16,West,270,0.0,0.0,89,0.00,,,0.00,WUHU216HW,2013-06-24 11:03:00,
2013-06-24 07:13:00,69.0,66.0,30.15,West,270,0.0,0.0,90,0.00,,,0.00,WUHU216HW,2013-06-24 11:13:00,
2013-06-24 07:19:00,70.1,67.1,30.15,West,270,0.0,0.0,90,0.00,,,0.00,WUHU216HW,2013-06-24 11:19:00,
2013-06-24 07:25:00,70.5,67.1,30.15,West,270,0.0,0.0,89,0.00,,,0.00,WUHU216HW,2013-06-24 11:25:00,
2013-06-24 07:31:00,70.8,67.4,30.16,West,270,0.0,0.0,89,0.00,,,0.00,WUHU216HW,2013-06-24 11:31:00,
2013-06-24 07:36:00,70.8,67.4,30.15,West,270,0.0,0.0,89,0.00,,,0.00,WUHU216HW,2013-06-24 11:36:00,
2013-06-24 07:43:00,71.2,67.4,30.15,West,270,0.0,0.0,88,0.00,,,0.00,WUHU216HW,2013-06-24 11:43:00,
2013-06-24 07:52:00,71.7,68.0,30.15,West,270,0.0,0.0,88,0.00,,,0.00,WUHU216HW,2013-06-24 11:52:00,
2013-06-24 07:58:00,72.1,68.3,30.16,West,270,0.0,0.0,88,0.00,,,0.00,WUHU216HW,2013-06-24 11:58:00,
2013-06-24 08:04:00,72.5,68.7,30.16,West,270,0.0,0.0,88,0.00,,,0.00,WUHU216HW,2013-06-24 12:04:00,
2013-06-24 08:10:00,73.0,69.2,30.16,West,270,0.0,0.0,88,0.00,,,0.00,WUHU216HW,2013-06-24 12:10:00,
2013-06-24 08:15:00,73.2,69.4,30.16,West,270,0.0,0.0,88,0.00,,,0.00,WUHU216HW,2013-06-24 12:15:00,
2013-06-24 08:21:00,73.5,69.8,30.16,West,270,0.0,0.0,88,0.00,,,0.00,WUHU216HW,2013-06-24 12:21:00,
2013-06-24 08:26:00,73.9,69.8,30.16,WSW,248,0.0,0.0,87,0.00,,,0.00,WUHU216HW,2013-06-24 12:26:00,
2013-06-24 08:31:00,74.3,69.8,30.16,WNW,293,0.0,0.0,86,0.00,,,0.00,WUHU216HW,2013-06-24 12:31:00,
2013-06-24 08:36:00,74.4,70.0,30.16,WNW,293,0.0,0.0,86,0.00,,,0.00,WUHU216HW,2013-06-24 12:36:00,
2013-06-24 08:42:00,75.0,70.5,30.16,WNW,293,0.0,0.0,86,0.00,,,0.00,WUHU216HW,2013-06-24 12:42:00,
2013-06-24 08:47:00,75.3,70.9,30.16,WNW,293,0.0,0.0,86,0.00,,,0.00,WUHU216HW,2013-06-24 12:47:00,
2013-06-24 08:53:00,75.7,70.9,30.16,WNW,293,0.0,0.0,85,0.00,,,0.00,WUHU216HW,2013-06-24 12:53:00,
2013-06-24 08:58:00,75.9,70.7,30.16,WSW,248,0.0,0.0,84,0.00,,,0.00,WUHU216HW,2013-06-24 12:58:00,
2013-06-24 09:04:00,76.2,71.0,30.17,SW,225,0.0,0.0,84,0.00,,,0.00,WUHU216HW,2013-06-24 13:04:00,
2013-06-24 09:09:00,76.8,71.6,30.17,SW,225,0.0,0.0,84,0.00,,,0.00,WUHU216HW,2013-06-24 13:09:00,
2013-06-24 09:15:00,77.1,71.6,30.16,NW,315,0.0,0.0,83,0.00,,,0.00,WUHU216HW,2013-06-24 13:15:00,
2013-06-24 09:22:00,77.5,71.9,30.16,NW,315,0.0,0.0,83,0.00,,,0.00,WUHU216HW,2013-06-24 13:22:00,
2013-06-24 09:28:00,77.7,71.7,30.16,NW,315,0.0,0.0,82,0.00,,,0.00,WUHU216HW,2013-06-24 13:28:00,
2013-06-24 09:33:00,78.2,71.9,30.17,NW,315,0.0,0.0,81,0.00,,,0.00,WUHU216HW,2013-06-24 13:33:00,
2013-06-24 09:38:00,78.6,72.3,30.17,WNW,293,0.0,0.0,81,0.00,,,0.00,WUHU216HW,2013-06-24 13:38:00,
2013-06-24 09:43:00,78.8,72.1,30.17,WNW,293,0.0,0.0,80,0.00,,,0.00,WUHU216HW,2013-06-24 13:43:00,
2013-06-24 09:48:00,79.1,72.5,30.16,SW,225,0.0,0.0,80,0.00,,,0.00,WUHU216HW,2013-06-24 13:48:00,
2013-06-24 09:54:00,79.7,72.6,30.16,WSW,248,0.0,0.0,79,0.00,,,0.00,WUHU216HW,2013-06-24 13:54:00,
2013-06-24 09:59:00,79.8,72.4,30.17,WSW,248,0.0,0.0,78,0.00,,,0.00,WUHU216HW,2013-06-24 13:59:00,
2013-06-24 10:05:00,80.4,72.9,30.17,NW,315,0.0,0.0,78,0.00,,,0.00,WUHU216HW,2013-06-24 14:05:00,
2013-06-24 10:11:00,80.7,72.9,30.17,WSW,248,0.0,0.0,77,0.00,,,0.00,WUHU216HW,2013-06-24 14:11:00,
2013-06-24 10:20:00,81.6,73.3,30.17,WSW,248,0.0,0.0,76,0.00,,,0.00,WUHU216HW,2013-06-24 14:20:00,
2013-06-24 10:26:00,82.5,73.8,30.17,West,270,0.0,0.0,75,0.00,,,0.00,WUHU216HW,2013-06-24 14:26:00,
2013-06-24 10:32:00,83.1,74.3,30.17,NNW,338,0.0,0.0,75,0.00,,,0.00,WUHU216HW,2013-06-24 14:32:00,
2013-06-24 10:38:00,83.4,74.2,30.17,NNW,338,0.0,0.0,74,0.00,,,0.00,WUHU216HW,2013-06-24 14:38:00,
2013-06-24 10:45:00,84.2,74.5,30.17,NNW,338,0.0,0.0,73,0.00,,,0.00,WUHU216HW,2013-06-24 14:45:00,
2013-06-24 10:55:00,85.2,74.4,30.17,SSW,203,0.0,0.0,70,0.00,,,0.00,WUHU216HW,2013-06-24 14:55:00,
2013-06-24 11:01:00,85.6,74.3,30.17,WSW,248,0.0,0.0,69,0.00,,,0.00,WUHU216HW,2013-06-24 15:01:00,
2013-06-24 11:07:00,86.1,74.4,30.17,West,270,0.0,0.0,68,0.00,,,0.00,WUHU216HW,2013-06-24 15:07:00,
2013-06-24 11:12:00,86.5,74.2,30.17,SE,135,0.0,0.0,67,0.00,,,0.00,WUHU216HW,2013-06-24 15:12:00,
2013-06-24 11:19:00,87.0,74.3,30.17,WSW,248,0.0,0.0,66,0.00,,,0.00,WUHU216HW,2013-06-24 15:19:00,
2013-06-24 11:28:00,87.9,73.3,30.16,WSW,248,0.0,0.0,62,0.00,,,0.00,WUHU216HW,2013-06-24 15:28:00,
2013-06-24 11:34:00,88.3,73.7,30.16,WSW,248,0.0,0.0,62,0.00,,,0.00,WUHU216HW,2013-06-24 15:34:00,
2013-06-24 11:40:00,89.2,75.0,30.16,WSW,248,0.0,0.0,63,0.00,,,0.00,WUHU216HW,2013-06-24 15:40:00,
2013-06-24 11:46:00,89.9,74.7,30.16,West,270,0.0,0.0,61,0.00,,,0.00,WUHU216HW,2013-06-24 15:46:00,
2013-06-24 11:52:00,90.3,74.7,30.16,SW,225,0.0,0.0,60,0.00,,,0.00,WUHU216HW,2013-06-24 15:52:00,
2013-06-24 11:57:00,91.0,75.2,30.16,South,180,0.0,0.0,60,0.00,,,0.00,WUHU216HW,2013-06-24 15:57:00,
2013-06-24 12:03:00,91.5,74.6,30.16,SW,225,0.0,0.0,58,0.00,,,0.00,WUHU216HW,2013-06-24 16:03:00,
2013-06-24 12:09:00,91.9,75.5,30.16,SSW,203,0.0,0.0,59,0.00,,,0.00,WUHU216HW,2013-06-24 16:09:00,
2013-06-24 12:14:00,92.3,74.2,30.15,West,270,0.0,0.0,56,0.00,,,0.00,WUHU216HW,2013-06-24 16:14:00,
2013-06-24 12:19:00,91.9,73.3,30.15,NNW,338,0.0,0.0,55,0.00,,,0.00,WUHU216HW,2013-06-24 16:19:00,
2013-06-24 12:24:00,91.5,73.0,30.16,WSW,248,0.0,0.0,55,0.00,,,0.00,WUHU216HW,2013-06-24 16:24:00,
2013-06-24 12:29:00,90.5,72.5,30.15,West,270,0.0,0.0,56,0.00,,,0.00,WUHU216HW,2013-06-24 16:29:00,
2013-06-24 12:34:00,89.4,72.1,30.15,West,270,0.0,0.0,57,0.00,,,0.00,WUHU216HW,2013-06-24 16:34:00,
2013-06-24 12:40:00,88.7,73.5,30.15,WSW,248,0.0,0.0,61,0.00,,,0.00,WUHU216HW,2013-06-24 16:40:00,
2013-06-24 12:45:00,89.2,74.5,30.14,WSW,248,0.0,0.0,62,0.00,,,0.00,WUHU216HW,2013-06-24 16:45:00,
2013-06-24 12:50:00,90.1,74.8,30.14,South,180,0.0,0.0,61,0.00,,,0.00,WUHU216HW,2013-06-24 16:50:00,
2013-06-24 12:56:00,90.6,74.9,30.14,SSW,203,0.0,0.0,60,0.00,,,0.00,WUHU216HW,2013-06-24 16:56:00,
2013-06-24 13:01:00,91.9,75.0,30.14,WSW,248,0.0,0.0,58,0.00,,,0.00,WUHU216HW,2013-06-24 17:01:00,
2013-06-24 13:12:00,92.8,74.2,30.13,West,270,0.0,0.0,55,0.00,,,0.00,WUHU216HW,2013-06-24 17:12:00,
2013-06-24 13:18:00,93.3,73.6,30.13,NW,315,0.0,0.0,53,0.00,,,0.00,WUHU216HW,2013-06-24 17:18:00,
2013-06-24 13:24:00,93.0,73.8,30.13,WNW,293,0.0,0.0,54,0.00,,,0.00,WUHU216HW,2013-06-24 17:24:00,
2013-06-24 13:30:00,92.3,73.1,30.13,West,270,0.0,0.0,54,0.00,,,0.00,WUHU216HW,2013-06-24 17:30:00,
2013-06-24 13:36:00,91.2,73.2,30.12,WSW,248,0.0,0.0,56,0.00,,,0.00,WUHU216HW,2013-06-24 17:36:00,
2013-06-24 13:42:00,91.9,73.9,30.12,WNW,293,0.0,0.0,56,0.00,,,0.00,WUHU216HW,2013-06-24 17:42:00,
2013-06-24 13:47:00,91.9,72.8,30.13,WNW,293,0.0,0.0,54,0.00,,,0.00,WUHU216HW,2013-06-24 17:47:00,
2013-06-24 13:52:00,91.5,73.5,30.13,West,270,0.0,0.0,56,0.00,,,0.00,WUHU216HW,2013-06-24 17:52:00,
2013-06-24 13:57:00,91.2,73.7,30.13,West,270,0.0,0.0,57,0.00,,,0.00,WUHU216HW,2013-06-24 17:57:00,
2013-06-24 14:03:00,90.6,73.2,30.13,North,0,0.0,0.0,57,0.00,,,0.00,WUHU216HW,2013-06-24 18:03:00,
2013-06-24 14:08:00,89.7,72.4,30.13,North,0,0.0,0.0,57,0.00,,,0.00,WUHU216HW,2013-06-24 18:08:00,
2013-06-24 14:14:00,88.1,70.4,30.13,WSW,248,0.0,0.0,56,0.00,,,0.00,WUHU216HW,2013-06-24 18:14:00,
2013-06-24 14:19:00,87.9,70.8,30.12,WSW,248,0.0,0.0,57,0.00,,,0.00,WUHU216HW,2013-06-24 18:19:00,
2013-06-24 14:24:00,88.3,71.7,30.12,WSW,248,0.0,0.0,57,0.00,,,0.00,WUHU216HW,2013-06-24 18:24:00,
2013-06-24 14:30:00,88.8,71.6,30.11,WSW,248,0.0,0.0,57,0.00,,,0.00,WUHU216HW,2013-06-24 18:30:00,
2013-06-24 14:35:00,89.4,73.2,30.11,WSW,248,0.0,0.0,59,0.00,,,0.00,WUHU216HW,2013-06-24 18:35:00,
2013-06-24 14:40:00,89.7,73.0,30.10,WSW,248,0.0,0.0,58,0.00,,,0.00,WUHU216HW,2013-06-24 18:40:00,
2013-06-24 14:45:00,89.7,73.0,30.11,WSW,248,0.0,0.0,58,0.00,,,0.00,WUHU216HW,2013-06-24 18:45:00,
2013-06-24 14:50:00,90.1,73.8,30.11,WSW,248,0.0,0.0,59,0.00,,,0.00,WUHU216HW,2013-06-24 18:50:00,
2013-06-24 14:56:00,90.3,74.0,30.11,WSW,248,0.0,0.0,59,0.00,,,0.00,WUHU216HW,2013-06-24 18:56:00,
2013-06-24 15:06:00,91.2,74.8,30.10,NNE,23,0.0,0.0,59,0.00,,,0.00,WUHU216HW,2013-06-24 19:06:00,
2013-06-24 15:12:00,91.2,74.8,30.10,North,0,0.0,0.0,59,0.00,,,0.00,WUHU216HW,2013-06-24 19:12:00,
2013-06-24 15:17:00,91.7,75.3,30.09,NNE,23,0.0,0.0,59,0.00,,,0.00,WUHU216HW,2013-06-24 19:17:00,
2013-06-24 15:24:00,91.9,75.0,30.10,WSW,248,0.0,0.0,58,0.00,,,0.00,WUHU216HW,2013-06-24 19:24:00,
2013-06-24 15:35:00,92.4,74.9,30.08,WSW,248,1.5,1.5,57,0.00,,,0.00,WUHU216HW,2013-06-24 19:35:00,
2013-06-24 15:40:00,92.6,75.1,30.08,WSW,248,0.0,1.5,57,0.00,,,0.00,WUHU216HW,2013-06-24 19:40:00,
2013-06-24 15:46:00,93.0,76.0,30.08,WSW,248,0.0,1.5,58,0.00,,,0.00,WUHU216HW,2013-06-24 19:46:00,
2013-06-24 15:51:00,93.3,76.4,30.08,WSW,248,0.0,0.0,58,0.00,,,0.00,WUHU216HW,2013-06-24 19:51:00,
2013-06-24 15:56:00,93.5,76.1,30.08,WSW,248,0.0,0.0,57,0.00,,,0.00,WUHU216HW,2013-06-24 19:56:00,
2013-06-24 16:01:00,93.7,75.6,30.07,WSW,248,0.0,0.0,56,0.00,,,0.00,WUHU216HW,2013-06-24 20:01:00,
2013-06-24 16:06:00,93.7,76.1,30.07,WSW,248,0.0,0.0,57,0.00,,,0.00,WUHU216HW,2013-06-24 20:06:00,
2013-06-24 16:11:00,94.1,76.5,30.07,WSW,248,0.0,0.0,57,0.00,,,0.00,WUHU216HW,2013-06-24 20:11:00,
2013-06-24 16:16:00,94.4,76.2,30.07,WSW,248,0.0,0.0,56,0.00,,,0.00,WUHU216HW,2013-06-24 20:16:00,
2013-06-24 16:22:00,94.8,76.6,30.06,WSW,248,0.0,0.0,56,0.00,,,0.00,WUHU216HW,2013-06-24 20:22:00,
2013-06-24 16:27:00,94.8,76.6,30.07,WSW,248,0.0,0.0,56,0.00,,,0.00,WUHU216HW,2013-06-24 20:27:00,
2013-06-24 16:33:00,95.1,75.9,30.06,WSW,248,0.0,0.0,54,0.00,,,0.00,WUHU216HW,2013-06-24 20:33:00,
2013-06-24 16:43:00,95.1,75.9,30.06,WSW,248,0.0,0.0,54,0.00,,,0.00,WUHU216HW,2013-06-24 20:43:00,
2013-06-24 16:54:00,95.7,76.3,30.05,SW,225,0.0,0.0,54,0.00,,,0.00,WUHU216HW,2013-06-24 20:54:00,
2013-06-24 16:59:00,95.1,75.9,30.06,SW,225,0.0,0.0,54,0.00,,,0.00,WUHU216HW,2013-06-24 20:59:00,
2013-06-24 17:04:00,94.6,75.3,30.05,WSW,248,0.0,0.0,54,0.00,,,0.00,WUHU216HW,2013-06-24 21:04:00,
2013-06-24 17:14:00,94.4,75.7,30.05,WSW,248,0.0,0.0,55,0.00,,,0.00,WUHU216HW,2013-06-24 21:14:00,
2013-06-24 17:19:00,94.2,75.5,30.05,SW,225,0.0,0.0,55,0.00,,,0.00,WUHU216HW,2013-06-24 21:19:00,
2013-06-24 17:25:00,93.7,75.0,30.05,WSW,248,0.0,0.0,55,0.00,,,0.00,WUHU216HW,2013-06-24 21:25:00,
2013-06-24 17:30:00,93.5,74.9,30.05,WSW,248,0.0,0.0,55,0.00,,,0.00,WUHU216HW,2013-06-24 21:30:00,
2013-06-24 17:36:00,93.3,75.2,30.05,WSW,248,0.0,0.0,56,0.00,,,0.00,WUHU216HW,2013-06-24 21:36:00,
2013-06-24 17:41:00,92.8,74.9,30.05,WSW,248,0.0,0.0,56,0.00,,,0.00,WUHU216HW,2013-06-24 21:41:00,
2013-06-24 17:47:00,92.4,74.4,30.05,NW,315,0.0,0.0,56,0.00,,,0.00,WUHU216HW,2013-06-24 21:47:00,
2013-06-24 17:52:00,92.4,75.5,30.05,NW,315,0.0,0.0,58,0.00,,,0.00,WUHU216HW,2013-06-24 21:52:00,
2013-06-24 17:58:00,92.3,74.8,30.05,NW,315,0.0,0.0,57,0.00,,,0.00,WUHU216HW,2013-06-24 21:58:00,
2013-06-24 18:03:00,91.9,74.4,30.05,NE,45,0.0,0.0,57,0.00,,,0.00,WUHU216HW,2013-06-24 22:03:00,
2013-06-24 18:09:00,91.5,74.1,30.05,WSW,248,0.0,0.0,57,0.00,,,0.00,WUHU216HW,2013-06-24 22:09:00,
2013-06-24 18:14:00,91.2,73.2,30.05,WSW,248,0.0,0.0,56,0.00,,,0.00,WUHU216HW,2013-06-24 22:14:00,
2013-06-24 18:20:00,91.0,74.1,30.05,SW,225,0.0,0.0,58,0.00,,,0.00,WUHU216HW,2013-06-24 22:20:00,
2013-06-24 18:25:00,90.8,73.4,30.05,SW,225,0.0,0.0,57,0.00,,,0.00,WUHU216HW,2013-06-24 22:25:00,
2013-06-24 18:31:00,90.3,72.9,30.05,SSW,203,0.0,0.0,57,0.00,,,0.00,WUHU216HW,2013-06-24 22:31:00,
2013-06-24 18:36:00,89.9,73.1,30.05,SSW,203,0.0,0.0,58,0.00,,,0.00,WUHU216HW,2013-06-24 22:36:00,
2013-06-24 18:42:00,89.4,73.2,30.05,SW,225,0.0,0.0,59,0.00,,,0.00,WUHU216HW,2013-06-24 22:42:00,
2013-06-24 18:48:00,89.2,74.0,30.05,SSW,203,0.0,0.0,61,0.00,,,0.00,WUHU216HW,2013-06-24 22:48:00,
2013-06-24 18:54:00,88.7,74.0,30.05,SSW,203,0.0,0.0,62,0.00,,,0.00,WUHU216HW,2013-06-24 22:54:00,
2013-06-24 18:59:00,88.3,72.8,30.05,SW,225,0.0,0.0,60,0.00,,,0.00,WUHU216HW,2013-06-24 22:59:00,
2013-06-24 19:05:00,88.1,73.5,30.05,SW,225,0.0,0.0,62,0.00,,,0.00,WUHU216HW,2013-06-24 23:05:00,
2013-06-24 19:10:00,88.1,73.0,30.05,SW,225,0.0,0.0,61,0.00,,,0.00,WUHU216HW,2013-06-24 23:10:00,
2013-06-24 19:16:00,88.1,73.0,30.05,SSW,203,0.0,0.0,61,0.00,,,0.00,WUHU216HW,2013-06-24 23:16:00,
2013-06-24 19:27:00,87.6,73.0,30.04,SW,225,0.0,0.0,62,0.00,,,0.00,WUHU216HW,2013-06-24 23:27:00,
2013-06-24 19:33:00,87.2,72.6,30.04,SW,225,0.0,0.0,62,0.00,,,0.00,WUHU216HW,2013-06-24 23:33:00,
2013-06-24 19:38:00,87.0,72.9,30.04,SW,225,0.0,0.0,63,0.00,,,0.00,WUHU216HW,2013-06-24 23:38:00,
2013-06-24 19:43:00,86.9,73.0,30.04,SW,225,0.0,0.0,64,0.00,,,0.00,WUHU216HW,2013-06-24 23:43:00,
2013-06-24 19:49:00,86.5,73.3,30.04,SW,225,0.0,0.0,65,0.00,,,0.00,WUHU216HW,2013-06-24 23:49:00,
2013-06-24 19:54:00,86.1,73.4,30.04,SW,225,0.0,0.0,66,0.00,,,0.00,WUHU216HW,2013-06-24 23:54:00,
2013-06-24 19:59:00,85.8,73.1,30.04,SW,225,0.0,0.0,66,0.00,,,0.00,WUHU216HW,2013-06-24 23:59:00,
2013-06-24 20:05:00,85.2,73.0,30.04,SW,225,0.0,0.0,67,0.00,,,0.00,WUHU216HW,2013-06-25 00:05:00,
2013-06-24 20:11:00,84.9,72.7,30.04,SW,225,0.0,0.0,67,0.00,,,0.00,WUHU216HW,2013-06-25 00:11:00,
2013-06-24 20:17:00,84.5,72.8,30.05,SW,225,0.0,0.0,68,0.00,,,0.00,WUHU216HW,2013-06-25 00:17:00,
2013-06-24 20:22:00,84.0,72.3,30.05,SW,225,0.0,0.0,68,0.00,,,0.00,WUHU216HW,2013-06-25 00:22:00,
2013-06-24 20:27:00,83.4,71.7,30.05,SW,225,0.0,0.0,68,0.00,,,0.00,WUHU216HW,2013-06-25 00:27:00,
2013-06-24 20:33:00,82.7,71.5,30.05,SW,225,0.0,0.0,69,0.00,,,0.00,WUHU216HW,2013-06-25 00:33:00,
2013-06-24 20:38:00,82.2,70.9,30.05,SW,225,0.0,0.0,69,0.00,,,0.00,WUHU216HW,2013-06-25 00:38:00,
2013-06-24 20:43:00,81.6,70.5,30.05,SW,225,0.0,0.0,69,0.00,,,0.00,WUHU216HW,2013-06-25 00:43:00,
2013-06-24 20:49:00,81.3,70.6,30.05,SW,225,0.0,0.0,70,0.00,,,0.00,WUHU216HW,2013-06-25 00:49:00,
2013-06-24 20:54:00,80.6,69.9,30.05,SW,225,0.0,0.0,70,0.00,,,0.00,WUHU216HW,2013-06-25 00:54:00,
2013-06-24 21:00:00,80.4,70.1,30.05,SW,225,0.0,0.0,71,0.00,,,0.00,WUHU216HW,2013-06-25 01:00:00,
2013-06-24 21:05:00,79.7,69.4,30.05,SW,225,0.0,0.0,71,0.00,,,0.00,WUHU216HW,2013-06-25 01:05:00,
2013-06-24 21:11:00,79.3,69.5,30.05,SW,225,0.0,0.0,72,0.00,,,0.00,WUHU216HW,2013-06-25 01:11:00,
2013-06-24 21:21:00,78.9,69.1,30.06,SW,225,0.0,0.0,72,0.00,,,0.00,WUHU216HW,2013-06-25 01:21:00,
2013-06-24 21:27:00,78.6,68.7,30.06,SW,225,0.0,0.0,72,0.00,,,0.00,WUHU216HW,2013-06-25 01:27:00,
2013-06-24 21:33:00,78.0,68.6,30.06,SW,225,0.0,0.0,73,0.00,,,0.00,WUHU216HW,2013-06-25 01:33:00,
2013-06-24 21:38:00,77.9,68.5,30.06,SW,225,0.0,0.0,73,0.00,,,0.00,WUHU216HW,2013-06-25 01:38:00,
2013-06-24 21:43:00,77.5,68.5,30.07,SW,225,0.0,0.0,74,0.00,,,0.00,WUHU216HW,2013-06-25 01:43:00,
2013-06-24 21:53:00,77.1,68.2,30.07,SW,225,0.0,0.0,74,0.00,,,0.00,WUHU216HW,2013-06-25 01:53:00,
2013-06-24 21:59:00,76.8,67.8,30.07,SW,225,0.0,0.0,74,0.00,,,0.00,WUHU216HW,2013-06-25 01:59:00,
2013-06-24 22:04:00,76.8,67.8,30.07,SW,225,0.0,0.0,74,0.00,,,0.00,WUHU216HW,2013-06-25 02:04:00,
2013-06-24 22:10:00,76.4,67.9,30.07,SW,225,0.0,0.0,75,0.00,,,0.00,WUHU216HW,2013-06-25 02:10:00,
2013-06-24 22:15:00,76.2,67.7,30.07,SW,225,0.0,0.0,75,0.00,,,0.00,WUHU216HW,2013-06-25 02:15:00,
2013-06-24 22:26:00,75.9,67.8,30.08,SW,225,0.0,0.0,76,0.00,,,0.00,WUHU216HW,2013-06-25 02:26:00,
2013-06-24 22:32:00,75.9,67.8,30.08,SW,225,0.0,0.0,76,0.00,,,0.00,WUHU216HW,2013-06-25 02:32:00,
2013-06-24 22:37:00,75.7,67.6,30.08,SW,225,0.0,0.0,76,0.00,,,0.00,WUHU216HW,2013-06-25 02:37:00,
2013-06-24 22:42:00,75.5,67.4,30.08,SW,225,0.0,0.0,76,0.00,,,0.00,WUHU216HW,2013-06-25 02:42:00,
2013-06-24 22:48:00,75.3,67.6,30.08,SW,225,0.0,0.0,77,0.00,,,0.00,WUHU216HW,2013-06-25 02:48:00,
2013-06-24 22:59:00,75.0,67.3,30.07,SW,225,0.0,0.0,77,0.00,,,0.00,WUHU216HW,2013-06-25 02:59:00,
2013-06-24 23:04:00,75.0,67.7,30.07,SW,225,0.0,0.0,78,0.00,,,0.00,WUHU216HW,2013-06-25 03:04:00,
2013-06-24 23:10:00,74.6,67.3,30.07,SW,225,0.0,0.0,78,0.00,,,0.00,WUHU216HW,2013-06-25 03:10:00,
2013-06-24 23:16:00,74.4,67.2,30.07,SW,225,0.0,0.0,78,0.00,,,0.00,WUHU216HW,2013-06-25 03:16:00,
2013-06-24 23:21:00,74.1,66.8,30.07,SW,225,0.0,0.0,78,0.00,,,0.00,WUHU216HW,2013-06-25 03:21:00,
2013-06-24 23:27:00,74.1,67.2,30.07,SW,225,0.0,0.0,79,0.00,,,0.00,WUHU216HW,2013-06-25 03:27:00,
2013-06-24 23:32:00,73.9,67.0,30.08,SW,225,0.0,0.0,79,0.00,,,0.00,WUHU216HW,2013-06-25 03:32:00,
2013-06-24 23:42:00,73.5,66.7,30.08,SW,225,0.0,0.0,79,0.00,,,0.00,WUHU216HW,2013-06-25 03:42:00,
2013-06-24 23:47:00,73.5,67.1,30.08,SW,225,0.0,0.0,80,0.00,,,0.00,WUHU216HW,2013-06-25 03:47:00,
2013-06-24 23:52:00,73.4,66.9,30.08,SW,225,0.0,0.0,80,0.00,,,0.00,WUHU216HW,2013-06-25 03:52:00,
2013-06-24 23:58:00,73.2,66.7,30.08,SW,225,0.0,0.0,80,0.00,,,0.00,WUHU216HW,2013-06-25 03:58:00,